[[{"header":{"parameterUnit":"m.s-1","parameterCategory":1,"la1":30.2991,"la2":30.254,"lo1":-89.0895,"lo2":-89.0444,"dy":0.0017,"dx":0.0017,"nx":28,"ny":28,"refTime":"2023-10-15T03:00:00:Z","depth":0,"parameterNumber":2,"parameterNumberName":"U-component_of_WINDS"},"data":[0,0,0,0,0,0,0,0,0,0,0,0,0,0,0,0,0,0,0,0,0,0,0,0,0,0,0,0,0,0,0,0,0,0,0,0,0,0,0,0,0,0,0,0,0,0,0,0,0,0,0,0,0,0,0,0,0,0,2.6967,2.6967,0,2.6938,2.6938,2.6937,2.6893,2.6892,2.6891,2.6891,2.686,2.686,2.6859,0,0,0,0,0,0,0,0,0,0,0,0,0,2.6985,2.6985,2.6967,2.6967,2.6967,2.6938,2.6938,2.6937,2.6893,2.6892,2.6891,2.689,2.686,2.686,2.6859,0,0,0,0,0,0,0,0,0,0,0,0,0,2.6969,2.6985,2.6967,2.6941,2.6938,2.6938,2.6938,2.6937,2.6893,2.6892,2.6891,2.689,2.686,2.686,2.6859,2.6882,0,0,2.6859,2.6859,0,0,0,0,0,0,0,0,2.697,2.6968,2.6945,2.6943,2.694,2.6918,2.6932,2.6919,2.6894,2.691,2.6891,2.6889,2.688,2.6878,2.6875,2.6881,2.6879,2.6859,2.6859,2.6859,2.6859,0,0,0,0,0,0,0,2.6971,2.6969,2.6956,2.6945,2.6942,2.6931,2.6927,2.693,2.6902,2.6909,2.6906,2.6903,2.6878,2.6875,2.6874,2.6879,2.6859,2.6859,2.6859,2.6859,2.6901,2.6902,0,0,0,0,0,0,2.6976,2.697,2.6957,2.6955,2.6952,2.6931,2.6927,2.6926,2.6902,2.6897,2.6904,2.6901,2.6876,2.6874,2.6873,2.6897,2.6859,2.6859,2.6859,2.69,2.6901,2.6903,0,0,0,0,0,0,2.6977,2.6975,2.6958,2.6962,2.6959,2.6932,2.6931,2.6926,2.6923,2.6898,2.6893,2.6906,2.6875,2.6873,2.688,2.6895,2.6859,2.6858,2.6899,2.69,2.6902,2.6946,0,0,0,0,0,0,2.6977,2.6976,2.6984,2.6962,2.6959,2.6966,2.6932,2.6926,2.6923,2.6919,2.6899,2.6894,2.6874,2.6881,2.688,2.6894,2.6858,2.6897,2.6899,2.6902,2.6943,2.6949,2.6954,0,0,0,0,0,2.6978,2.6997,2.6984,2.6983,2.6968,2.6967,2.6964,2.6941,2.6925,2.6932,2.6917,2.6895,2.6894,2.6882,2.6881,2.6895,2.6896,2.6899,2.6901,2.694,2.6948,2.6954,0,0,0,0,0,0,2.7021,2.6994,2.6979,2.6992,2.6982,2.6959,2.6968,2.695,2.6944,2.694,2.6911,2.6907,2.6918,2.6907,2.6894,2.6916,2.6892,2.6894,2.6922,2.6929,2.6934,2.6935,2.6858,0,0,0,0,0,2.7032,2.7033,2.7009,2.7023,2.7018,2.6995,2.6993,2.6976,2.6964,2.696,2.6944,2.6933,2.6931,2.6929,2.6926,2.6942,2.6936,2.6952,2.6957,2.6962,2.6964,2.6971,2.6977,2.6912,2.6912,2.6912,0,0,2.7054,2.704,2.7042,2.7031,2.7021,2.7022,2.6991,2.6994,2.6994,2.696,2.6965,2.6954,2.694,2.6952,2.6956,2.6943,2.6981,2.6965,2.6969,2.6969,2.6975,2.6981,2.6987,2.6914,2.6913,2.6913,0,0,2.7095,2.7085,2.7094,2.7086,2.7071,2.7056,2.7058,2.7039,2.703,2.7035,2.7009,2.701,2.7006,2.6997,2.6992,2.7032,2.7011,2.7031,2.706,2.7067,2.7072,2.7077,2.709,2.7095,2.7034,2.7034,2.7034,0,2.7124,2.7125,2.7102,2.7106,2.7102,2.7072,2.7082,2.7074,2.706,2.7057,2.7044,2.7038,2.7027,2.7036,2.7046,2.7043,2.7045,2.7032,2.7074,2.7078,2.7082,2.7094,2.7099,2.7036,2.7036,2.7036,2.7036,0,2.7162,2.7163,2.7173,2.716,2.7157,2.7164,2.7142,2.7142,2.7126,2.7112,2.7117,2.7103,2.7096,2.7097,2.7081,2.7104,2.7096,2.7079,2.7054,2.7091,2.7101,2.7106,2.704,2.7039,2.7038,2.7038,0,0,2.7226,2.7201,2.7205,2.7199,2.7182,2.7182,2.7189,2.7182,2.7182,2.7174,2.7177,2.7176,2.7159,2.7154,2.7137,2.7144,2.7175,2.7125,2.7125,2.7134,2.7198,2.721,2.7216,2.7163,2.7164,2.7164,2.7199,0,2.7263,2.7271,2.7251,2.7264,2.7265,2.7238,2.7243,2.7233,2.722,2.7219,2.7205,2.7204,2.7183,2.718,2.7186,2.717,2.7188,2.7168,2.7165,2.7165,2.7167,2.7222,2.7234,2.7268,2.7203,2.7204,2.7204,0,2.7305,2.73,2.7313,2.7296,2.7295,2.73,2.7293,2.7292,2.7281,2.7271,2.7266,2.7247,2.7251,2.7229,2.7235,2.7222,2.722,2.7213,2.7213,2.721,2.7185,2.7219,2.7278,2.7283,2.7211,2.7211,2.721,0,2.735,2.7345,2.7353,2.7348,2.7329,2.7333,2.7325,2.7312,2.731,2.7303,2.7301,2.7296,2.7292,2.7288,2.7268,2.7254,2.7276,2.7252,2.7267,2.7268,2.7271,2.7271,2.7329,2.7274,2.7273,2.7273,2.7273,0,2.7391,2.74,2.7372,2.7377,2.7386,2.7363,2.7373,2.7363,2.7352,2.7354,2.733,2.7332,2.7307,2.7306,2.7291,2.7297,2.7296,2.7288,2.7283,2.7289,2.729,2.7286,2.7282,2.7275,2.7274,2.7274,2.7274,0,2.7441,2.7423,2.7429,2.741,2.7406,2.7413,2.7397,2.74,2.7387,2.739,2.7389,2.7368,2.7366,2.7347,2.734,2.733,2.7342,2.7334,2.7346,2.7342,2.7358,2.7356,2.7414,2.742,2.7362,2.7363,2.7363,0,2.7467,2.7473,2.7456,2.7455,2.7449,2.7449,2.7446,2.7424,2.7423,2.7411,2.7416,2.7412,2.7408,2.7406,2.739,2.7385,2.7376,2.7396,2.7375,2.738,2.7374,2.7373,2.7373,2.74,2.7401,2.7402,2.7402,0,2.7516,2.7507,2.7504,2.7499,2.7496,2.7491,2.7484,2.7485,2.7462,2.7461,2.7459,2.7456,2.745,2.7446,2.7439,2.743,2.7412,2.741,2.7412,2.7417,2.7423,2.7418,2.7356,2.7408,2.7407,2.7407,2.7406,2.7406,2.7553,2.7557,2.7546,2.7544,2.7537,2.7531,2.7533,2.7521,2.7519,2.7512,2.75,2.75,2.7489,2.7477,2.7471,2.747,2.7459,2.7464,2.7464,2.7465,2.7468,2.7425,2.7469,2.7469,2.7468,2.7468,2.7468,0,2.7599,2.7591,2.7589,2.758,2.7579,2.7564,2.7555,2.7555,2.7555,2.7547,2.7544,2.7541,2.7538,2.7523,2.7518,2.752,2.7512,2.752,2.7518,2.7516,2.7479,2.7476,2.7527,2.7527,2.7527,2.7527,2.7527,2.7527,2.7622,2.7629,2.7619,2.7621,2.7613,2.7613,2.7609,2.7604,2.7597,2.7596,2.7593,2.7584,2.7573,2.7567,2.7563,2.7559,2.7557,2.7568,2.756,2.7525,2.7519,2.7514,2.7511,2.7568,2.7568,2.7598,2.7598,2.7598]},{"header":{"parameterUnit":"m.s-1","parameterCategory":1,"la1":30.2991,"la2":30.254,"lo1":-89.0895,"lo2":-89.0444,"dy":0.0017,"dx":0.0017,"nx":28,"ny":28,"refTime":"2023-10-15T03:00:00:Z","depth":0,"parameterNumber":3,"parameterNumberName":"V-component_of_WINDS"},"data":[0,0,0,0,0,0,0,0,0,0,0,0,0,0,0,0,0,0,0,0,0,0,0,0,0,0,0,0,0,0,0,0,0,0,0,0,0,0,0,0,0,0,0,0,0,0,0,0,0,0,0,0,0,0,0,0,0,0,-5.4792,-5.4794,0,-5.4986,-5.4988,-5.499,-5.4939,-5.4935,-5.4932,-5.4928,-5.5122,-5.513,-5.5139,0,0,0,0,0,0,0,0,0,0,0,0,0,-5.4373,-5.4381,-5.4792,-5.4794,-5.4797,-5.4986,-5.4988,-5.4991,-5.494,-5.4935,-5.4931,-5.4926,-5.5119,-5.5129,-5.514,0,0,0,0,0,0,0,0,0,0,0,0,0,-5.456,-5.4384,-5.4791,-5.4794,-5.4796,-5.4985,-5.4988,-5.4992,-5.4941,-5.4935,-5.4929,-5.4924,-5.5115,-5.5128,-5.5141,-5.5338,0,0,-5.5181,-5.5187,0,0,0,0,0,0,0,0,-5.4549,-5.4575,-5.4791,-5.4794,-5.4797,-5.4933,-5.4912,-5.5108,-5.4942,-5.4886,-5.4928,-5.4921,-5.5063,-5.508,-5.5129,-5.5347,-5.5355,-5.5182,-5.519,-5.5196,-5.52,0,0,0,0,0,0,0,-5.4536,-5.4566,-5.4868,-5.4794,-5.4798,-5.4784,-5.4805,-5.4949,-5.5004,-5.489,-5.4887,-5.4911,-5.5064,-5.5117,-5.5133,-5.5358,-5.5182,-5.5194,-5.5202,-5.5207,-5.5748,-5.5754,0,0,0,0,0,0,-5.4522,-5.4556,-5.4862,-5.4874,-5.4657,-5.4797,-5.4819,-5.4895,-5.5003,-5.5014,-5.4916,-5.4908,-5.5097,-5.5118,-5.514,-5.5379,-5.5196,-5.5208,-5.5216,-5.5742,-5.575,-5.5757,0,0,0,0,0,0,-5.4513,-5.455,-5.4854,-5.4715,-5.4752,-5.481,-5.4895,-5.4902,-5.4955,-5.5022,-5.5031,-5.496,-5.5093,-5.5121,-5.529,-5.5385,-5.5214,-5.5226,-5.5734,-5.5744,-5.5753,-5.5857,0,0,0,0,0,0,-5.4501,-5.4547,-5.4623,-5.4717,-5.476,-5.5003,-5.4901,-5.491,-5.4978,-5.497,-5.5066,-5.5076,-5.5091,-5.527,-5.5303,-5.54,-5.5236,-5.5726,-5.5739,-5.575,-5.5845,-5.5869,-5.589,0,0,0,0,0,-5.4486,-5.4643,-5.4627,-5.4664,-5.4857,-5.5008,-5.5033,-5.5048,-5.4986,-5.5063,-5.5106,-5.5073,-5.5369,-5.5288,-5.5324,-5.5426,-5.572,-5.5735,-5.5749,-5.5836,-5.5865,-5.5889,0,0,0,0,0,0,-5.4557,-5.4655,-5.4639,-5.483,-5.4912,-5.4999,-5.5096,-5.5078,-5.5177,-5.5165,-5.5177,-5.52,-5.5372,-5.5415,-5.5324,-5.5623,-5.5535,-5.5558,-5.5589,-5.5617,-5.5638,-5.5625,-5.5247,0,0,0,0,0,-5.4595,-5.4711,-5.479,-5.4952,-5.4993,-5.5038,-5.5105,-5.511,-5.5193,-5.5227,-5.5282,-5.5364,-5.5475,-5.5548,-5.5654,-5.5851,-5.5872,-5.5939,-5.5961,-5.5979,-5.5999,-5.6107,-5.6139,-5.5805,-5.5805,-5.5804,0,0,-5.4674,-5.4742,-5.4815,-5.4968,-5.5031,-5.515,-5.5067,-5.5196,-5.5285,-5.5246,-5.5409,-5.5453,-5.5544,-5.5729,-5.5812,-5.577,-5.6095,-5.5998,-5.6011,-5.6021,-5.6126,-5.6157,-5.6185,-5.5815,-5.5813,-5.5811,0,0,-5.488,-5.4944,-5.5086,-5.5152,-5.525,-5.5279,-5.5313,-5.5404,-5.5433,-5.5597,-5.5571,-5.5675,-5.5866,-5.5933,-5.5992,-5.6225,-5.6199,-5.6259,-5.6375,-5.6481,-5.6507,-5.653,-5.6615,-5.6645,-5.6278,-5.6279,-5.6279,0,-5.4967,-5.5147,-5.5161,-5.5294,-5.5362,-5.5334,-5.5479,-5.5541,-5.5668,-5.5715,-5.5666,-5.5907,-5.5967,-5.6167,-5.6224,-5.6272,-5.6312,-5.6249,-5.6502,-5.6526,-5.6548,-5.6629,-5.666,-5.6285,-5.6284,-5.6284,-5.6283,0,-5.5248,-5.5374,-5.5477,-5.5603,-5.5682,-5.582,-5.5854,-5.5933,-5.5931,-5.5965,-5.6133,-5.6204,-5.6324,-5.6372,-5.637,-5.6573,-5.6544,-5.6499,-5.6411,-5.6587,-5.6663,-5.6694,-5.6295,-5.6293,-5.6291,-5.6289,0,0,-5.5504,-5.5638,-5.5675,-5.5733,-5.5839,-5.5936,-5.6072,-5.6192,-5.626,-5.6348,-5.6463,-5.6626,-5.6586,-5.6653,-5.6659,-5.6752,-5.6934,-5.6695,-5.6698,-5.6739,-5.7163,-5.7197,-5.7233,-5.6917,-5.6923,-5.6928,-5.7156,0,-5.5721,-5.5963,-5.5981,-5.6199,-5.6315,-5.6291,-5.641,-5.6488,-5.6523,-5.6626,-5.6663,-5.678,-5.6717,-5.6758,-5.6849,-5.6893,-5.7019,-5.6876,-5.7024,-5.7029,-5.7003,-5.7272,-5.7309,-5.7521,-5.7185,-5.719,-5.7194,0,-5.6006,-5.6106,-5.6337,-5.6429,-5.6478,-5.6585,-5.6697,-5.6796,-5.6883,-5.6902,-5.6979,-5.6972,-5.7111,-5.7018,-5.721,-5.7112,-5.7173,-5.7204,-5.7213,-5.7228,-5.7123,-5.7296,-5.7589,-5.7621,-5.7241,-5.7237,-5.7234,0,-5.6172,-5.6364,-5.6527,-5.6577,-5.6687,-5.6763,-5.6812,-5.6894,-5.6966,-5.7063,-5.711,-5.7221,-5.7283,-5.7369,-5.7392,-5.7322,-5.7584,-5.7492,-5.7604,-5.7604,-5.7661,-5.7658,-5.7969,-5.7699,-5.7698,-5.7698,-5.7697,0,-5.6413,-5.6556,-5.6603,-5.6704,-5.6863,-5.6881,-5.7037,-5.7081,-5.7155,-5.7263,-5.7247,-5.7349,-5.7373,-5.7479,-5.7497,-5.7655,-5.7682,-5.7701,-5.7705,-5.7704,-5.7702,-5.7745,-5.7731,-5.7706,-5.7704,-5.7703,-5.7701,0,-5.6625,-5.6663,-5.684,-5.6931,-5.6957,-5.707,-5.7148,-5.7244,-5.7277,-5.7415,-5.7448,-5.75,-5.7624,-5.7656,-5.7803,-5.7816,-5.8002,-5.7991,-5.7974,-5.7973,-5.8084,-5.8074,-5.8435,-5.8484,-5.818,-5.8183,-5.8185,0,-5.6778,-5.6887,-5.6991,-5.7063,-5.7117,-5.7233,-5.7307,-5.7328,-5.7405,-5.7514,-5.7598,-5.772,-5.782,-5.8019,-5.807,-5.8183,-5.8175,-5.8294,-5.8192,-5.8188,-5.8179,-5.8173,-5.8184,-5.8313,-5.8317,-5.8319,-5.8321,0,-5.7044,-5.7058,-5.7166,-5.7281,-5.737,-5.7461,-5.7548,-5.7608,-5.7641,-5.7729,-5.7857,-5.7934,-5.8086,-5.8209,-5.8323,-5.8372,-5.8353,-5.8353,-5.8385,-5.8386,-5.8373,-5.8383,-5.8028,-5.8345,-5.8343,-5.8341,-5.834,-5.8339,-5.7233,-5.7329,-5.7418,-5.7539,-5.7607,-5.7689,-5.7785,-5.7832,-5.7939,-5.8067,-5.8072,-5.8212,-5.8297,-5.8449,-5.8505,-5.8613,-5.8577,-5.8623,-5.8635,-5.8647,-5.8657,-5.8354,-5.8634,-5.8633,-5.8632,-5.8632,-5.8632,0,-5.75,-5.7556,-5.7667,-5.7791,-5.7886,-5.7861,-5.7957,-5.8038,-5.8161,-5.8243,-5.8342,-5.849,-5.8609,-5.8669,-5.8787,-5.8862,-5.8857,-5.8893,-5.8888,-5.89,-5.8682,-5.8643,-5.8895,-5.8895,-5.8895,-5.8895,-5.8895,-5.8895,-5.765,-5.7814,-5.7838,-5.8035,-5.8089,-5.8228,-5.8285,-5.836,-5.8426,-5.8593,-5.8692,-5.8731,-5.8805,-5.8928,-5.9036,-5.905,-5.9095,-5.9136,-5.9146,-5.8942,-5.8915,-5.8889,-5.8853,-5.9145,-5.9145,-5.9355,-5.9357,-5.9359]}]]